Home > Weather > Dresden > Past weeks

Flag for Germany Past Weather in Dresden, Saxony, Germany — Yesterday and Last 2 Weeks

Now
66 °F

Clear.


Feels Like: 66 °F
Forecast: 63 / 85 °F
Wind: 2 mph from Northeast

Location: Dresden-Klotzsche

Current Time: Jul 25, 2016 at 12:26:39 AM

Latest Report: Jul 24, 2016 at 11:50 PM


Visibility: 10 mi

Pressure: 30.09 "Hg

Humidity: 94%

Dew Point: 64 °F

Location of DresdenLocation

Past Weather in Dresden — Graph

°F

Dresden Temperature Yesterday

Maximum temperature yesterday: 75 °F (at 3:50 PM)
Minimum temperature yesterday: 63 °F (at 4:50 AM)
Average temperature yesterday: 69 °F

High & Low Weather Summary for the Past Weeks

 TemperatureHumidityPressure
High88 °F (Jul 11, 12:20 PM)100% (Jul 14, 1:20 AM)30.27 "Hg (Jul 14, 1:20 AM)
Low50 °F (Jul 16, 3:50 AM)29% (Jul 16, 5:50 PM)29.80 "Hg (Jul 11, 2:50 AM)
Average67 °F72%30.03 "Hg
* Reported Jul 9 11:20 PM — Jul 24 11:20 PM, Dresden, Weather by CustomWeather, © 2016

Note: Actual official high and low records may vary slightly from our data, if they occured in-between our weather recording intervals... More about our weather records

Advertising

Dresden Weather History for the Previous 24 Hours

Scroll right to see more
 ConditionsComfort  
Time TempWeatherWind HumidityBarometerVisibility
11:20 PM
Sun, Jul 24
68 °FClear.2 mph88%30.09 "Hg10 mi
10:50 PM68 °FClear.2 mph88%30.09 "Hg10 mi
10:20 PM70 °FClear.3 mph83%30.09 "Hg10 mi
9:50 PM70 °FPassing clouds.3 mph83%30.09 "HgN/A
9:20 PM70 °FSunny.3 mph83%30.07 "Hg10 mi
8:50 PM72 °FSunny.3 mph83%30.07 "Hg10 mi
8:20 PM73 °FPassing clouds.6 mph74%30.07 "HgN/A
7:50 PM75 °FPassing clouds.6 mph69%30.07 "HgN/A
7:20 PM75 °FPassing clouds.7 mph69%30.07 "HgN/A
6:50 PM75 °FScattered clouds.7 mph69%30.07 "HgN/A
6:20 PM75 °FPartly sunny.6 mph69%30.07 "HgN/A
5:50 PM75 °FPartly sunny.5 mph69%30.07 "HgN/A
5:20 PM75 °FBroken clouds.6 mph69%30.07 "HgN/A
4:50 PM75 °FBroken clouds.3 mph69%30.09 "HgN/A
4:20 PM75 °FBroken clouds.5 mph69%30.09 "HgN/A
3:50 PM75 °FBroken clouds.5 mph69%30.09 "HgN/A
3:20 PM73 °FScattered clouds.6 mph69%30.09 "HgN/A
2:50 PM73 °FScattered clouds.6 mph74%30.09 "HgN/A
2:20 PM73 °FScattered clouds.7 mph74%30.09 "HgN/A
1:50 PM73 °FScattered clouds.8 mph74%30.09 "HgN/A
1:20 PM73 °FBroken clouds.9 mph78%30.09 "HgN/A
12:50 PM72 °FPartly sunny.6 mph78%30.09 "HgN/A
12:20 PM72 °FPartly sunny.6 mph78%30.09 "HgN/A
11:50 AM72 °FPartly sunny.6 mph78%30.09 "HgN/A
11:20 AM70 °FPartly sunny.6 mph83%30.09 "HgN/A
10:50 AM68 °FPartly sunny.5 mph88%30.09 "HgN/A
10:20 AM68 °FPartly sunny.5 mph88%30.09 "HgN/A
9:50 AM68 °FBroken clouds.5 mph83%30.09 "HgN/A
9:20 AM66 °FBroken clouds.3 mph94%30.09 "HgN/A
8:50 AM66 °FPartly sunny.3 mph94%30.09 "HgN/A
8:20 AM64 °FPartly sunny.2 mph94%30.09 "Hg6 mi
7:50 AM64 °FBroken clouds.1 mph100%30.09 "Hg4 mi
7:20 AM64 °FLight rain. Broken clouds.1 mph100%30.09 "Hg4 mi
6:50 AM64 °FLight rain. Fog.2 mph94%30.09 "Hg2 mi
6:20 AM63 °FLight rain. Fog.1 mph100%30.09 "Hg1 mi
5:50 AM63 °FLight rain. Fog.2 mph100%30.09 "Hg1 mi
5:20 AM63 °FLight rain. Fog.2 mph100%30.09 "Hg1 mi
4:50 AM63 °FRain. Fog.2 mph100%30.09 "Hg1 mi
4:20 AM64 °FRain. Fog.3 mph94%30.09 "Hg2 mi
3:50 AM64 °FRain. Fog.2 mph94%30.09 "Hg1 mi
3:20 AM64 °FLight rain. Fog.3 mph94%30.09 "Hg2 mi
2:50 AM64 °FRain. Fog.2 mph94%30.09 "Hg2 mi
2:20 AM64 °FRain. Fog.2 mph94%30.09 "Hg2 mi
1:50 AM66 °FLight rain. Fog.5 mph88%30.09 "Hg3 mi
1:20 AM66 °FClear.1 mph88%30.09 "Hg10 mi
12:50 AM66 °FLight rain. Clear.5 mph88%30.07 "HgN/A
12:20 AM66 °FClear.7 mph88%30.07 "Hg10 mi
Weather by CustomWeather, © 2016

See weather overviewHow to use our weather pages